Wind_Speed
6 6 5 6 5 4 2 3 4 5 5 7 8 10 10 10 8 9 9 9 8 9 9 9 8 9 9 9 10 10 11 11 12 12 13 14 14 15 15 15 15 15 15 15 14 14 15 15 15
6 6 5 5 4 3 2 4 5 6 6 7 9 10 11 10 10 9 10 10 9 9 9 8 9 9 10 11 11 11 12 13 13 13 14 15 15 15 16 16 16 16 16 15 16 16 16 16 16
7 6 6 6 3 3 3 5 8 8 8 8 8 9 11 11 11 10 10 10 10 10 10 10 9 10 10 12 12 13 13 14 14 15 15 16 16 17 17 17 17 18 17 17 17 17 17 17 17
7 6 6 6 4 3 5 6 9 9 9 9 10 10 10 10 10 11 11 11 11 11 11 11 10 11 12 13 14 14 14 15 15 15 16 17 17 17 18 19 19 19 19 19 19 19 18 18 18
7 7 6 5 4 5 6 7 8 9 9 8 9 9 10 11 11 11 12 12 13 13 12 12 11 12 13 13 13 13 14 15 15 16 16 17 17 18 19 20 20 20 20 20 20 20 20 20 19
8 8 6 4 3 5 7 8 8 9 9 9 11 11 11 11 12 12 12 12 13 12 12 11 12 13 13 14 14 14 15 14 15 16 16 17 17 18 19 20 21 21 21 21 21 21 21 21 21
8 8 6 5 4 5 6 6 7 8 9 11 11 11 12 11 12 13 13 13 13 12 12 13 13 14 15 14 15 16 15 15 16 17 17 18 18 19 20 21 21 22 22 22 21 22 22 22 23
9 8 6 5 5 6 7 6 8 11 12 12 11 11 12 12 12 13 14 15 14 13 14 14 15 16 16 15 16 17 17 17 18 17 18 19 20 20 21 21 22 23 23 22 21 21 22 22 23
8 7 6 5 6 6 7 8 9 11 13 13 13 13 13 14 13 13 14 15 15 14 15 16 16 17 17 17 18 19 19 18 18 19 20 20 21 21 21 21 21 22 22 22 22 22 22 23 23
8 7 6 4 6 7 8 9 10 11 13 13 13 13 13 14 14 15 16 16 16 17 17 18 19 18 18 18 19 19 19 19 19 20 20 20 21 21 21 22 22 23 23 23 24 23 23 23 23
8 6 4 4 6 8 8 9 10 11 13 12 12 13 15 15 16 17 17 17 18 19 19 20 21 19 18 19 19 20 20 20 19 20 21 21 21 22 22 22 23 24 24 24 24 24 24 24 24
6 5 4 5 6 7 8 8 10 11 11 12 12 14 15 16 17 19 19 18 19 19 20 21 22 21 21 20 20 20 20 20 20 21 21 21 21 22 22 22 23 23 23 23 23 23 23 24 24
6 5 5 5 5 7 8 9 10 11 11 12 13 15 16 17 19 20 20 20 20 19 20 20 21 21 22 21 20 20 20 21 21 21 21 21 21 22 23 22 23 23 23 23 22 22 22 23 23
6 5 5 5 5 6 8 9 11 11 13 14 15 16 17 18 18 19 20 20 21 20 19 20 21 22 23 22 22 21 21 22 22 21 21 22 22 22 23 23 22 22 22 22 21 21 20 21 21
5 5 6 5 7 7 9 10 12 12 13 14 15 16 16 17 18 20 20 21 21 21 21 21 22 23 23 22 22 22 22 23 23 23 23 23 23 23 22 22 22 22 20 20 20 20 19 19 20
5 6 7 7 7 9 11 12 13 13 14 15 15 15 16 17 19 20 20 21 22 22 23 22 21 22 22 23 23 23 23 23 24 24 23 23 23 22 22 22 21 20 19 19 19 19 19 18 18
6 7 8 9 10 11 13 14 15 15 15 15 15 15 16 18 19 20 20 22 22 23 22 22 22 23 22 23 23 23 24 24 24 24 23 23 22 21 20 20 19 19 19 19 19 18 18 19 19
7 8 8 10 11 12 14 14 14 16 16 16 16 17 17 19 19 19 20 21 22 23 23 23 23 23 23 23 23 23 23 24 24 24 23 22 21 21 20 19 19 19 19 20 19 19 19 19 19
8 9 9 9 11 12 13 14 15 17 18 18 18 19 19 20 20 19 19 20 23 23 22 23 24 24 24 24 23 22 22 23 22 21 21 20 20 19 19 19 19 19 19 20 19 19 19 19 19
9 10 10 10 11 13 14 14 15 18 18 19 21 21 20 22 23 23 24 23 22 22 23 24 23 23 23 23 23 22 21 22 21 21 20 19 19 19 19 18 18 19 20 19 19 19 20 20 20
10 10 10 10 11 13 14 14 15 17 19 20 21 22 23 23 24 24 23 22 23 23 23 23 22 22 22 21 21 20 20 21 20 20 20 19 19 20 20 19 19 19 19 18 19 20 20 20 20
10 11 12 12 11 12 14 15 16 17 19 19 21 22 24 24 25 23 23 23 23 23 24 24 24 23 22 21 21 21 21 20 20 20 20 20 20 20 20 20 20 20 19 19 19 20 20 21 21
11 12 13 13 13 13 14 16 16 16 17 19 21 22 22 23 23 22 22 23 23 23 23 23 23 22 22 21 21 21 21 20 20 20 20 20 20 20 19 19 19 19 19 19 20 20 21 21 22
12 13 13 13 13 14 14 15 15 16 17 17 18 19 20 20 20 20 20 20 21 22 22 22 23 22 21 21 21 20 20 20 19 20 19 19 19 18 18 18 18 18 19 19 20 20 21 22 23
14 14 13 13 13 13 14 15 16 16 16 16 18 19 19 19 19 19 19 20 21 21 20 21 21 21 20 20 20 20 19 19 19 18 18 18 18 17 17 18 18 18 19 19 20 21 22 23 23
14 14 13 13 14 14 14 15 15 14 16 17 18 17 17 17 19 20 19 20 21 21 20 21 20 20 20 20 19 19 18 18 17 17 16 16 15 16 17 18 18 18 19 20 20 21 22 23 23
15 13 13 13 14 15 15 14 14 15 15 16 16 16 17 18 19 19 19 19 20 20 20 20 20 19 19 19 18 18 18 17 15 15 14 14 15 15 16 17 18 19 20 21 21 22 23 23 23
14 13 13 14 15 15 14 14 15 16 16 15 16 17 17 18 17 18 19 19 19 19 19 20 19 19 19 18 17 16 15 15 14 13 13 14 15 15 16 16 17 19 20 21 21 21 22 22 22
13 13 13 13 14 15 16 15 15 15 16 16 16 17 18 18 18 18 18 19 19 19 19 19 19 18 18 18 16 15 14 13 13 12 13 13 14 14 15 15 17 18 18 19 19 20 20 20 20
13 14 12 12 13 15 16 15 14 15 15 16 17 17 16 18 19 19 18 18 19 19 19 18 18 17 17 17 15 14 14 14 13 13 12 12 13 13 14 15 16 17 17 17 18 18 19 19 20
Wind_Direction
187 189 195 191 190 190 216 237 255 256 253 267 276 281 288 293 292 294 295 298 309 316 316 313 314 314 314 309 306 302 300 299 297 294 293 292 292 293 292 290 291 291 290 287 283 281 279 276 272
192 201 206 206 204 228 253 263 261 269 274 276 279 285 286 291 294 297 297 298 305 311 315 312 313 314 313 307 304 301 299 297 298 295 293 290 288 288 287 289 290 289 288 286 283 281 279 276 274
199 205 214 217 219 225 240 277 284 277 279 280 284 291 290 290 291 296 299 302 305 309 309 306 306 307 308 304 300 298 298 296 295 294 292 289 287 285 285 285 286 288 287 285 282 280 278 276 275
211 220 227 224 220 234 256 268 281 283 280 282 288 291 291 293 295 299 303 300 304 304 303 301 302 301 302 300 298 295 296 296 293 294 293 292 289 286 285 284 284 285 284 284 283 280 278 277 276
215 226 233 235 233 240 244 260 280 281 280 283 285 291 298 300 301 301 303 296 296 296 298 298 300 299 299 299 296 296 296 294 293 292 293 292 290 289 287 283 282 282 282 281 280 279 276 276 276
218 230 229 228 240 252 248 260 272 269 279 294 294 297 302 304 303 305 303 299 299 296 300 299 299 300 303 304 300 297 296 294 294 294 294 292 290 291 290 287 283 281 279 278 277 278 276 275 275
224 230 232 239 257 263 261 274 285 286 297 304 303 304 306 305 304 305 305 306 305 298 298 298 300 299 300 300 298 295 294 293 294 295 294 292 290 290 289 287 284 282 279 278 277 276 276 275 275
222 227 233 251 266 268 275 287 296 301 302 306 306 309 312 309 303 305 307 306 303 300 299 298 298 295 296 297 297 294 292 292 294 292 293 292 292 292 291 288 284 282 279 277 277 276 275 274 273
223 224 237 257 266 262 275 288 289 297 302 303 303 306 312 310 308 310 310 308 303 299 299 299 298 295 295 294 295 293 291 292 294 294 293 291 291 291 290 288 284 284 282 279 277 275 275 274 273
228 227 232 246 260 267 281 291 296 298 299 302 300 300 305 306 306 307 308 308 305 304 304 301 300 299 295 294 293 292 292 292 293 294 294 292 291 290 289 287 285 285 284 280 277 275 274 274 273
236 242 252 257 264 270 280 293 302 305 303 304 301 298 299 302 301 302 302 304 303 301 301 299 300 298 294 293 294 295 295 293 293 294 293 292 292 291 289 288 286 286 285 282 279 277 275 274 272
242 244 259 262 268 275 281 293 305 301 299 300 300 297 296 298 298 299 300 301 298 298 299 298 299 299 297 295 294 293 294 294 294 294 292 292 292 291 290 288 288 287 287 286 282 277 275 274 273
236 241 246 261 264 280 283 290 302 305 302 300 302 300 297 297 298 297 300 301 300 298 299 299 301 300 300 298 296 293 293 294 295 296 294 292 292 291 290 290 288 287 287 288 285 280 278 274 272
238 249 249 256 273 280 283 291 300 312 304 304 307 305 301 300 304 301 300 300 299 298 299 299 298 300 298 296 296 295 294 294 295 295 294 292 292 291 289 289 288 288 287 285 285 284 282 277 273
248 265 252 271 286 284 285 296 300 306 308 304 302 300 299 300 302 303 302 302 301 299 298 298 298 298 297 296 295 293 293 294 293 293 292 290 290 290 289 289 288 288 286 286 285 283 281 279 277
256 274 276 280 287 287 286 294 297 300 304 299 294 294 300 302 301 302 304 304 303 301 298 299 299 299 298 297 294 292 292 293 292 293 293 291 289 289 288 287 286 286 286 288 286 284 282 279 277
272 290 291 285 291 286 283 287 292 294 296 297 298 298 302 306 306 305 305 305 303 302 299 298 299 298 297 296 292 293 292 291 291 292 291 290 288 287 288 287 285 285 285 287 287 286 284 281 279
291 294 294 291 292 287 283 283 287 292 294 299 303 306 306 308 307 305 303 303 303 303 302 300 301 300 299 296 293 294 293 293 293 292 290 288 287 285 286 285 286 285 283 285 285 284 286 285 282
300 303 296 292 292 285 281 284 288 292 293 296 302 308 309 310 309 307 306 303 304 305 304 304 305 303 300 297 294 292 293 293 292 291 289 288 286 284 285 285 285 284 283 284 284 286 285 283 282
300 302 300 301 295 291 289 292 295 294 296 299 303 306 307 308 309 308 307 305 305 306 306 307 307 304 300 299 296 294 293 291 290 287 286 285 286 287 287 286 288 287 285 285 284 288 287 284 282
302 304 303 301 297 297 292 292 299 304 305 306 306 307 306 308 309 313 311 308 307 306 307 309 308 306 304 301 298 298 295 291 288 287 286 283 285 285 285 287 288 288 287 286 286 288 288 286 284
304 302 300 301 297 291 292 295 302 307 308 307 306 305 305 309 312 312 312 310 310 308 309 311 309 308 306 303 300 299 295 290 289 287 285 284 285 284 282 285 286 287 286 287 288 289 289 287 285
309 306 303 298 294 287 288 290 299 305 304 305 305 305 307 313 315 314 313 313 310 308 310 312 311 309 308 306 304 300 297 295 293 290 286 285 286 286 283 285 286 284 284 286 287 288 288 288 286
303 301 300 297 291 285 287 292 299 303 305 307 306 309 313 316 319 317 314 315 316 314 314 315 315 312 310 309 308 304 301 300 296 293 290 288 287 285 284 287 286 286 287 289 289 289 289 289 288
301 298 293 288 286 286 291 292 298 305 309 311 312 315 316 317 319 317 317 321 323 324 322 319 318 315 313 312 310 306 303 301 299 297 294 292 289 285 286 287 288 290 291 291 290 291 291 291 291
309 304 300 297 298 300 300 299 302 308 313 314 316 317 318 320 319 319 323 325 326 327 326 324 322 321 318 315 310 307 305 305 301 301 300 298 296 291 289 288 289 289 290 292 294 295 295 296 294
316 306 302 296 298 302 305 304 303 307 312 315 318 321 323 323 324 324 324 326 327 328 327 327 325 323 321 319 316 312 309 308 305 304 303 301 298 296 295 294 292 292 293 295 297 297 297 298 296
317 310 303 302 302 304 304 304 307 309 311 314 319 323 326 326 325 322 324 325 325 327 329 329 328 326 326 325 324 322 319 315 313 308 306 305 302 300 298 298 297 296 297 298 300 301 300 299 298
316 315 306 300 302 304 306 309 312 311 316 319 322 325 326 327 325 323 325 326 326 327 328 328 330 330 331 330 330 330 329 325 319 317 314 313 312 308 305 304 302 301 303 303 304 305 303 303 302
309 310 306 304 304 307 306 307 311 315 320 321 324 326 328 328 327 326 328 326 327 329 328 328 332 333 332 332 333 331 331 330 327 325 320 320 319 318 317 314 310 308 307 306 306 306 307 307 306
Height
5889 5889 5890 5892 5893 5893 5892 5892 5890 5890 5891 5890 5890 5890 5890 5891 5891 5892 5889 5887 5886 5886 5885 5885 5885 5884 5883 5883 5882 5881 5881 5880 5879 5878 5877 5876 5875 5873 5872 5871 5870 5870 5869 5868 5867 5866 5865 5865 5864
5888 5889 5890 5891 5891 5891 5891 5890 5889 5889 5889 5888 5889 5889 5889 5889 5889 5888 5887 5885 5885 5884 5884 5884 5883 5882 5881 5881 5880 5879 5879 5878 5877 5875 5874 5873 5872 5870 5869 5868 5867 5866 5866 5865 5864 5863 5863 5862 5861
5887 5888 5890 5890 5889 5889 5889 5888 5887 5887 5887 5887 5887 5887 5887 5887 5887 5886 5885 5884 5884 5883 5883 5882 5881 5880 5879 5879 5878 5877 5876 5875 5874 5873 5871 5870 5868 5867 5866 5865 5864 5863 5862 5862 5861 5860 5859 5858 5858
5887 5888 5889 5889 5887 5887 5887 5886 5886 5885 5885 5885 5885 5885 5885 5885 5885 5884 5883 5883 5882 5881 5881 5879 5879 5878 5877 5876 5875 5874 5873 5872 5871 5869 5868 5867 5865 5864 5863 5862 5861 5860 5859 5858 5857 5856 5855 5855 5854
5886 5887 5887 5886 5886 5886 5885 5884 5884 5884 5884 5883 5883 5883 5883 5883 5882 5882 5881 5881 5880 5879 5878 5877 5876 5875 5874 5873 5872 5871 5870 5869 5867 5866 5865 5863 5862 5860 5859 5858 5857 5856 5855 5854 5853 5852 5851 5850 5849
5885 5885 5885 5884 5884 5885 5884 5883 5882 5882 5882 5881 5881 5881 5881 5881 5880 5879 5878 5878 5877 5876 5875 5874 5873 5872 5871 5870 5869 5868 5867 5866 5864 5863 5861 5860 5858 5857 5855 5854 5853 5852 5851 5850 5849 5848 5847 5846 5845
5883 5883 5883 5883 5883 5883 5883 5881 5881 5880 5880 5880 5879 5879 5878 5878 5877 5877 5876 5875 5875 5874 5872 5871 5870 5869 5868 5867 5866 5864 5863 5862 5860 5859 5857 5856 5854 5852 5851 5849 5848 5847 5846 5845 5844 5843 5842 5841 5840
5881 5882 5881 5881 5881 5882 5882 5880 5879 5878 5878 5878 5878 5877 5876 5876 5875 5874 5874 5873 5872 5870 5869 5868 5867 5866 5865 5863 5862 5861 5859 5857 5856 5855 5853 5852 5850 5848 5846 5844 5842 5841 5841 5840 5839 5837 5836 5836 5835
5879 5881 5879 5880 5880 5881 5880 5879 5878 5877 5877 5876 5876 5875 5875 5873 5873 5872 5871 5870 5868 5866 5865 5864 5863 5862 5860 5859 5858 5856 5854 5853 5852 5850 5848 5847 5845 5843 5841 5839 5837 5836 5835 5834 5833 5832 5831 5830 5829
5878 5877 5877 5878 5878 5878 5878 5877 5876 5875 5875 5875 5875 5873 5872 5871 5870 5869 5868 5867 5865 5864 5862 5861 5859 5858 5857 5855 5854 5852 5851 5849 5847 5845 5843 5842 5840 5838 5836 5834 5832 5831 5829 5828 5826 5826 5825 5824 5824
5876 5876 5876 5875 5876 5876 5875 5875 5874 5873 5873 5873 5872 5871 5870 5869 5867 5866 5865 5864 5863 5861 5860 5858 5856 5854 5853 5851 5850 5848 5846 5844 5842 5840 5838 5836 5834 5832 5830 5829 5827 5825 5823 5822 5821 5820 5819 5818 5817
5874 5874 5874 5873 5873 5874 5874 5873 5872 5872 5871 5870 5869 5868 5867 5866 5865 5863 5862 5861 5860 5857 5855 5853 5851 5850 5848 5846 5845 5843 5841 5839 5837 5835 5833 5831 5829 5827 5825 5823 5821 5819 5818 5816 5815 5814 5813 5812 5811
5872 5872 5871 5871 5871 5872 5871 5871 5869 5868 5868 5867 5866 5865 5864 5863 5862 5860 5858 5857 5856 5853 5852 5849 5847 5845 5843 5841 5840 5838 5836 5834 5832 5829 5826 5825 5823 5821 5819 5817 5815 5813 5812 5810 5809 5808 5807 5806 5805
5870 5870 5870 5869 5868 5868 5869 5868 5867 5866 5865 5864 5863 5862 5861 5860 5859 5856 5854 5853 5851 5848 5847 5845 5843 5841 5838 5836 5834 5832 5830 5828 5826 5824 5822 5819 5817 5815 5813 5811 5809 5807 5806 5804 5803 5802 5801 5800 5800
5868 5869 5869 5868 5867 5867 5867 5866 5865 5864 5863 5861 5860 5859 5858 5856 5854 5853 5851 5849 5846 5844 5843 5840 5837 5835 5833 5831 5829 5827 5824 5822 5820 5818 5816 5813 5811 5809 5807 5805 5803 5802 5800 5798 5798 5797 5796 5796 5795
5867 5867 5867 5866 5865 5865 5866 5864 5863 5861 5860 5859 5857 5856 5855 5853 5851 5849 5846 5844 5842 5839 5837 5834 5832 5830 5827 5825 5823 5821 5818 5815 5813 5812 5809 5807 5805 5803 5801 5799 5797 5796 5795 5794 5793 5792 5791 5790 5790
5866 5865 5864 5864 5863 5862 5862 5860 5860 5858 5857 5856 5854 5853 5851 5850 5847 5845 5842 5839 5837 5834 5832 5829 5826 5824 5821 5819 5816 5814 5811 5808 5807 5805 5803 5801 5799 5797 5795 5793 5792 5791 5790 5789 5788 5787 5786 5785 5785
5864 5863 5862 5862 5861 5859 5858 5857 5856 5856 5854 5853 5851 5849 5847 5845 5842 5840 5837 5835 5832 5829 5826 5823 5820 5817 5814 5812 5810 5807 5805 5803 5801 5799 5797 5794 5793 5791 5789 5788 5787 5786 5785 5783 5782 5781 5781 5780 5779
5861 5861 5860 5860 5858 5857 5855 5854 5853 5852 5850 5849 5847 5845 5843 5841 5838 5835 5832 5829 5827 5824 5821 5818 5814 5811 5808 5806 5803 5801 5799 5796 5794 5792 5790 5788 5786 5785 5784 5783 5782 5780 5779 5778 5777 5776 5775 5774 5773
5860 5859 5859 5858 5856 5854 5852 5851 5850 5848 5847 5845 5843 5840 5839 5837 5833 5831 5827 5825 5822 5819 5815 5812 5808 5804 5801 5799 5796 5793 5792 5790 5788 5786 5784 5782 5781 5780 5778 5776 5776 5775 5773 5771 5770 5770 5769 5768 5767
5858 5858 5857 5855 5853 5851 5849 5848 5847 5845 5842 5840 5838 5836 5834 5831 5829 5825 5823 5820 5816 5813 5809 5806 5803 5799 5795 5792 5790 5787 5785 5784 5782 5780 5778 5777 5776 5775 5773 5772 5771 5769 5767 5766 5765 5764 5763 5762 5761
5857 5856 5854 5852 5851 5849 5848 5845 5843 5841 5839 5836 5834 5832 5829 5826 5823 5820 5818 5814 5811 5807 5804 5800 5797 5794 5790 5787 5785 5782 5780 5778 5776 5774 5772 5771 5770 5768 5767 5766 5765 5764 5762 5761 5760 5758 5757 5756 5755
5854 5853 5851 5850 5848 5846 5844 5842 5841 5838 5835 5832 5830 5827 5824 5821 5819 5816 5813 5809 5806 5802 5798 5795 5791 5788 5785 5782 5779 5777 5774 5772 5770 5768 5767 5765 5764 5762 5761 5760 5759 5758 5757 5755 5754 5752 5751 5749 5748
5852 5851 5849 5847 5845 5844 5842 5839 5838 5834 5832 5829 5826 5823 5820 5817 5814 5811 5808 5805 5801 5796 5793 5790 5786 5783 5781 5777 5774 5771 5769 5766 5765 5762 5760 5759 5758 5757 5755 5754 5753 5752 5751 5749 5747 5746 5744 5742 5740
5848 5847 5846 5844 5842 5840 5838 5836 5835 5831 5828 5826 5823 5820 5816 5813 5810 5806 5803 5800 5796 5793 5789 5786 5782 5779 5776 5773 5769 5766 5764 5761 5759 5757 5755 5753 5752 5751 5750 5748 5747 5746 5745 5743 5741 5739 5737 5734 5732
5844 5843 5842 5840 5838 5836 5834 5832 5831 5828 5825 5822 5819 5816 5813 5809 5806 5802 5799 5796 5793 5789 5786 5783 5779 5775 5771 5768 5765 5761 5759 5757 5755 5752 5750 5748 5747 5746 5744 5743 5741 5740 5739 5737 5734 5732 5729 5727 5725
5841 5839 5838 5837 5834 5832 5830 5829 5827 5824 5822 5819 5817 5814 5810 5806 5803 5799 5796 5793 5789 5786 5783 5779 5775 5772 5768 5764 5761 5758 5755 5752 5750 5748 5746 5744 5743 5741 5739 5738 5736 5734 5732 5730 5728 5725 5723 5720 5717
5839 5836 5834 5833 5830 5828 5827 5825 5824 5821 5819 5817 5814 5810 5807 5803 5800 5796 5793 5790 5787 5783 5780 5776 5772 5768 5765 5761 5758 5755 5752 5749 5747 5745 5743 5741 5738 5736 5734 5733 5731 5728 5726 5724 5721 5718 5716 5713 5710
5836 5834 5831 5829 5827 5825 5823 5824 5820 5818 5815 5812 5809 5806 5803 5800 5796 5793 5790 5787 5783 5780 5776 5773 5769 5765 5762 5758 5755 5752 5750 5747 5744 5742 5739 5737 5735 5732 5730 5728 5726 5723 5720 5718 5715 5713 5710 5707 5704
5833 5830 5828 5827 5824 5822 5820 5821 5816 5814 5812 5809 5806 5803 5800 5797 5794 5790 5787 5784 5780 5777 5773 5770 5766 5762 5759 5756 5753 5750 5747 5745 5742 5739 5737 5734 5732 5729 5727 5724 5721 5718 5716 5713 5710 5707 5705 5702 5699